Location: *
(41.3833°S, 177.8333°W)
Time: 01:02:57
(UTC+00:00)

Cosmos 405 Rocket - Pass Details

Date: 01 April 2020
Orbit: 490 x 554 km, 81.3° (Epoch: 31 May)

Event Time Altitude Azimuth Distance (km) Brightness Sun altitude
Exits shadow 16:15:47 43° 209° (SSW) 779 3.4 -21.7°
Drops below altitude 10° 16:18:51 10° 179° (S) 1,853 5.7 -21.2°
Sets 16:21:06 0° 174° (S) 2,763 6.6 -20.8°
